Time,B instrument,Bx,By,Bz,sigma B,Ion instrument,Status,Tp_par,Tp_perp,carrot,r_sun,clat,clong,earth_he_angle,n_p,vp_x,vp_y,vp_z,vth_p_par,vth_p_perp
1980-08-16 00:02:24,1,-3.0,1.575,-0.4,0.389711,1,1,93487.2,68055.2,1698,0.96437109,1.1602068,277.65564,103.32751,5.25642,386.501,-15.7325,30.9272,39.2857,33.5188
1980-08-16 00:05:06,1,-2.9,1.93333,-0.733333,0.48074,1,1,66250.4,52504.5,1698,0.96437645,1.1600189,277.63171,103.32703,5.2592,380.098,-15.6407,27.0395,33.0714,29.4413
1980-08-16 00:07:48,1,-1.4,1.6,-0.9,0.270801,1,1,94344.4,80309.9,1698,0.96437997,1.159893,277.60406,103.32671,5.28279,375.173,-13.9399,33.6386,39.4654,36.4118
1980-08-16 00:10:30,1,-1.86667,1.66667,-0.966667,0.216025,1,1,61384.6,52801.2,1698,0.96438533,1.1597052,277.58014,103.32622,4.85717,373.399,-11.9453,30.7297,31.8337,29.5243
1980-08-16 00:13:12,1,-1.66667,1.6,-1.3,0.298142,1,1,67928.4,47243.5,1698,0.9643907,1.1595173,277.55621,103.32573,4.76121,374.957,-11.0517,28.022,33.4876,27.9273
1980-08-16 00:15:54,1,-2.55,2.125,-1.2,0.323071,1,1,54751.3,58488.4,1698,0.96439421,1.1593914,277.52853,103.32541,4.91633,379.776,-15.9444,28.0998,30.0646,31.0737
1980-08-16 00:18:36,1,-2.7,2.2,-0.2,0.0,1,1,51471.9,44952.6,1698,0.96439958,1.1592035,277.50461,103.32492,4.12133,380.986,-14.2008,25.5148,29.1503,27.2418
1980-08-16 00:21:18,1,-2.4,2.1,-0.2,0.254951,1,1,62806.6,79314.0,1698,0.96440488,1.1590157,277.48068,103.32443,5.36773,378.488,-13.8244,23.698,32.2003,36.1854
1980-08-16 00:24:00,1,-2.0,2.5,-0.6,0.4,1,1,69582.9,38982.0,1698,0.96441025,1.1588278,277.45285,103.32394,4.29171,376.447,-16.3476,25.2346,33.8929,25.3682
1980-08-16 00:26:42,1,-2.83333,2.13333,-0.2,0.210819,1,1,57268.2,66404.9,1698,0.96441382,1.1587019,277.42911,103.32362,5.22602,383.794,-13.346,25.0076,30.7478,33.1099
1980-08-16 00:29:24,1,0.966667,-0.333333,1.0,0.413656,1,1,99262.5,111831.0,1698,0.96441913,1.158514,277.40518,103.32314,6.01252,357.117,-6.03572,20.5482,40.4809,42.9673
1980-08-16 00:32:06,1,2.8,-2.33333,3.0,0.434613,1,1,79231.8,81339.3,1698,0.96442449,1.1583261,277.37735,103.32265,5.56838,338.708,2.02753,12.8761,36.1666,36.6444
1980-08-16 00:34:48,1,3.63333,-1.66667,3.23333,0.282843,1,1,73809.6,67460.0,1698,0.96442801,1.1582003,277.35358,103.32231,4.62207,333.779,4.17026,10.4115,34.9071,33.3719
1980-08-16 00:37:30,1,4.2,-0.633333,3.36667,0.253859,1,1,60414.1,72565.6,1698,0.96443337,1.1580124,277.32574,103.32184,4.81351,331.861,-9.46352,6.1661,31.5811,34.6117
1980-08-16 00:40:12,1,3.73333,-1.66667,1.9,0.210819,1,1,66386.8,73130.4,1698,0.96443874,1.1578245,277.30182,103.32135,4.85599,337.475,4.67206,18.1118,33.1054,34.7462
1980-08-16 00:42:54,1,3.9,1.8,2.6,0.0,1,1,72884.0,69154.1,1698,0.96444225,1.1576986,277.27805,103.32101,4.98918,336.791,-23.9028,12.3906,34.6876,33.7883
1980-08-16 00:45:36,1,3.83333,0.8,3.56667,0.226078,1,1,70528.2,71485.8,1698,0.96444762,1.1575108,277.25021,103.32053,4.89177,333.779,-15.9574,8.63099,34.1224,34.3532
1980-08-16 00:48:18,1,3.4,1.3,2.2,0.270801,1,1,82722.5,81393.9,1698,0.96445292,1.1573229,277.22629,103.32004,5.51842,337.293,-14.4153,14.8435,36.9547,36.6567
1980-08-16 00:51:00,1,1.66667,1.8,2.1,0.359011,1,1,83171.5,90188.4,1698,0.96445829,1.1571341,277.20236,103.31955,5.05787,346.255,-18.1129,14.5604,37.0549,38.5863
1980-08-16 00:53:42,1,-3.4,1.5,0.9,0.0,1,1,49762.4,78123.6,1698,0.96446186,1.1570091,277.17471,103.31923,5.02759,389.373,-10.6834,10.6215,28.6621,35.9128
1980-08-16 00:56:24,1,-3.5,1.925,0.825,0.220794,1,1,88427.2,75285.2,1698,0.96446717,1.1568213,277.15079,103.31874,5.85972,386.743,-15.5539,12.1542,38.2077,35.2543
1980-08-16 00:59:06,1,-1.8,2.7,1.53333,0.188562,1,1,110994.0,83125.1,1698,0.96447253,1.1566324,277.12686,103.31825,5.52717,368.543,-20.4894,5.16137,42.8062,37.0445
1980-08-16 01:01:48,1,-3.075,1.2,1.1,0.268095,1,1,94752.8,96913.8,1698,0.96447605,1.1565075,277.09918,103.31793,6.32196,382.664,-8.31704,11.4098,39.5507,39.9991
1980-08-16 01:04:30,1,1.1,1.63333,0.933333,0.352767,1,1,80315.6,100061.0,1698,0.96448141,1.1563187,277.07526,103.31744,6.32858,349.235,-12.2122,17.3685,36.4131,40.6435
1980-08-16 01:07:12,1,0.533333,1.63333,0.4,0.210819,1,1,76092.5,82413.4,1698,0.96448672,1.1561308,277.05133,103.31696,5.25318,350.945,-13.6421,19.2753,35.4429,36.8856
1980-08-16 01:09:54,1,1.26667,1.0,0.866667,0.48074,1,1,85610.8,108031.0,1698,0.96449023,1.1560059,277.02368,103.31664,6.1494,346.839,-8.50297,17.5689,37.5943,42.231
1980-08-16 01:12:36,1,3.0,0.9,1.8,0.0,1,1,71325.0,76184.3,1698,0.9644956,1.155817,276.99976,103.31615,5.35075,334.935,-11.6602,15.3481,34.3146,35.4642
1980-08-16 01:23:03,-1,nan,nan,nan,nan,1,3,nan,nan,1698,0.96451509,1.1551275,276.9003,103.31435,nan,342.453,-14.2822,26.9612,nan,nan
1980-08-16 01:33:51,1,1.2,0.4,-1.1,0.0,1,1,84842.1,58995.9,1698,0.96453285,1.1545,276.80103,103.31273,4.87719,350.397,-12.0172,29.8461,37.4251,31.2082
1980-08-16 01:44:39,1,-1.8,5.3,4.6,0.223607,1,1,49388.4,45595.0,1698,0.96455234,1.1538105,276.70157,103.31093,4.46118,357.074,-21.5053,8.57421,28.5542,27.4357
1980-08-16 01:53:06,1,-3.6,4.3,6.1,0.0,1,1,35913.5,30614.9,1698,0.96456832,1.1532459,276.62198,103.30946,3.83863,365.23,-13.4613,3.90726,24.3493,22.4814
1980-08-16 02:03:54,1,-3.4,4.8,6.1,0.0,1,1,32558.5,25954.3,1698,0.96458608,1.1526184,276.5188,103.30785,4.04825,363.813,-18.5587,5.72916,23.1841,20.6996
1980-08-16 02:14:42,1,-3.2,5.3,5.3,0.0,1,1,44436.7,28580.1,1698,0.96460551,1.1519289,276.41934,103.30605,3.82457,364.877,-13.2185,5.16438,27.085,21.7215
1980-08-16 02:25:30,1,-2.3,5.3,5.8,0.0,1,1,35828.8,33973.1,1698,0.964625,1.1512394,276.31989,103.30426,4.037,354.662,-20.8796,8.4285,24.3206,23.6824
1980-08-16 02:36:18,1,-3.2,4.1,6.9,0.0,1,1,38679.2,27554.9,1698,0.96464443,1.1505499,276.21655,103.30247,3.89101,357.184,-12.0548,4.07148,25.2695,21.3283
1980-08-16 02:47:06,1,-2.2,4.0,5.4,0.0,1,1,63393.8,39505.5,1698,0.96466392,1.1498594,276.1171,103.30067,4.21433,363.256,-4.14531,-4.48332,32.3505,25.538
1980-08-16 02:57:54,1,-0.4,0.1,-2.0,0.0,1,1,75698.7,32522.8,1698,0.96468157,1.1492329,276.01392,103.29906,4.68872,357.736,-5.27629,35.28,35.351,23.1714
1980-08-16 03:32:57,-1,nan,nan,nan,nan,1,3,nan,nan,1698,0.96474338,1.1470385,275.6879,103.29335,nan,350.658,-10.9365,24.7896,nan,nan
1980-08-16 03:38:21,1,2.86667,-1.53333,-1.8,0.194365,1,1,43447.3,37984.6,1698,0.96475393,1.1466627,275.63614,103.29237,4.59098,343.473,2.43917,36.1908,26.7818,25.0416
1980-08-16 03:43:45,1,2.76667,-0.666667,-1.93333,0.258199,1,1,36074.9,38263.2,1698,0.96476275,1.146349,275.58844,103.29155,4.67984,343.062,-0.885316,35.5019,24.404,25.1332
1980-08-16 03:46:30,1,2.73333,-0.566667,-2.2,0.24037,1,1,42388.9,35712.4,1698,0.96476805,1.1461611,275.56061,103.29106,4.64141,345.502,-6.70345,38.2536,26.4536,24.281
1980-08-16 03:51:54,1,3.2,-1.93333,-2.03333,0.266667,1,1,37219.8,40108.4,1698,0.96477687,1.1458473,275.509,103.29025,4.39973,343.486,3.11224,38.0448,24.7882,25.7321
1980-08-16 03:57:18,1,3.03333,-0.266667,-2.2,0.278887,1,1,40368.2,39113.6,1698,0.96478748,1.1454716,275.46115,103.28928,4.65413,342.491,-1.79399,39.5194,25.8153,25.411
1980-08-16 04:02:42,1,2.9,-1.23333,-2.2,0.402768,1,1,25912.7,35201.2,1698,0.9647963,1.1451578,275.40955,103.28845,4.16118,343.537,-4.02428,39.6848,20.683,24.1066
1980-08-16 04:08:06,1,2.46667,0.0333333,-2.4,0.278887,1,1,29647.7,37097.0,1698,0.96480685,1.1447821,275.35779,103.28748,4.77726,342.488,-8.58776,41.1776,22.1235,24.7473
1980-08-16 04:13:30,1,2.3,-1.2,-2.2,0.424264,1,1,34119.1,33418.6,1698,0.96481562,1.1444683,275.31012,103.28667,3.78393,342.806,2.94654,39.3155,23.7332,23.4883
1980-08-16 04:18:54,1,2.7,-0.7,-2.2,4.57757e-16,1,1,30852.2,35916.4,1698,0.96482444,1.1441555,275.25851,103.28584,4.3029,342.772,-3.08915,40.2773,22.5684,24.3503
1980-08-16 04:24:18,1,-2.775,4.05,6.75,0.43229,1,1,41164.7,22442.2,1698,0.96483499,1.1437788,275.20676,103.28487,3.72084,365.186,-27.0362,6.49697,26.0688,19.2482
1980-08-16 04:29:42,1,1.4,0.633333,-1.36667,0.323179,1,1,37356.5,29114.3,1698,0.96484381,1.143466,275.15515,103.28406,3.29432,350.606,-10.6425,57.5127,24.8337,21.9236
1980-08-16 04:35:06,1,1.4,1.23333,1.7,0.262467,1,1,68035.3,75080.2,1698,0.96485436,1.1430893,275.1073,103.28308,5.46713,334.206,-19.6706,41.0716,33.5139,35.2063
1980-08-16 04:40:30,1,2.66667,2.46667,0.233333,0.270801,1,1,45496.9,32064.7,1698,0.96486318,1.1427765,275.05569,103.28226,3.83323,332.683,-20.0497,26.5079,27.4062,23.0076
1980-08-16 04:51:18,1,2.13333,2.56667,-1.5,0.210819,1,1,42711.1,33802.7,1698,0.96488255,1.142087,274.95627,103.28047,4.66371,338.991,-28.0001,32.7393,26.5539,23.6229
1980-08-16 05:02:06,1,1.33333,1.66667,-3.03333,0.270801,1,1,40668.6,34748.4,1698,0.96490186,1.1413975,274.85291,103.27867,3.98424,349.223,-17.5328,36.7806,25.9112,23.9511
1980-08-16 05:07:30,1,0.9,1.63333,-3.2,0.249444,1,1,35022.1,32170.5,1698,0.96491069,1.1410847,274.80521,103.27786,4.63606,346.418,-17.1392,39.3333,24.0452,23.0455
1980-08-16 05:12:54,1,1.5,1.8,-2.56667,0.188562,1,1,42100.4,35130.8,1698,0.96491945,1.1407709,274.7536,103.27704,4.42899,343.445,-16.181,39.4427,26.3634,24.0825
1980-08-16 05:18:18,1,1.53333,2.7,-1.96667,0.494413,1,1,43769.9,33817.4,1698,0.96493,1.1403952,274.70184,103.27606,4.14479,356.712,-21.3636,54.8712,26.881,23.6281
1980-08-16 05:23:42,1,1.93333,3.06667,-1.66667,0.761577,1,1,38656.0,32238.3,1698,0.96493876,1.1400814,274.65024,103.27524,3.96861,347.641,-33.6811,42.1491,25.2619,23.0698
1980-08-16 05:29:06,1,3.13333,2.3,-1.06667,0.437163,1,1,39471.0,29526.6,1698,0.96494931,1.1397057,274.60239,103.27426,4.14336,338.724,-20.1018,46.3787,25.5268,22.0782
1980-08-16 05:34:30,1,4.93333,1.73333,0.566667,0.365148,1,1,31916.0,32914.6,1698,0.96495807,1.1393919,274.55081,103.27345,4.3149,321.952,-15.5742,40.2005,22.9542,23.3105
1980-08-16 05:39:54,1,5.43333,0.566667,1.13333,0.594418,1,1,25805.3,34600.3,1698,0.96496683,1.1390791,274.49921,103.27263,4.19992,318.467,-7.57438,40.541,20.6401,23.9
1980-08-16 05:45:18,1,5.03333,-2.26667,1.86667,0.653197,1,1,24652.7,33684.9,1698,0.96497738,1.1387024,274.45135,103.27165,4.34628,326.72,32.6358,27.23,20.1739,23.5817
1980-08-16 05:50:42,1,3.0,-5.06667,5.1,0.679869,1,1,26928.8,29783.3,1698,0.96498615,1.1383896,274.39975,103.27084,4.60681,331.931,39.3175,6.48617,21.0847,22.174
1980-08-16 05:56:06,1,0.433333,-1.06667,8.9,0.210819,1,1,37043.5,31839.8,1698,0.9649967,1.1380129,274.34799,103.26985,3.99385,356.662,2.02374,-25.5273,24.7294,22.9268
1980-08-16 06:01:30,1,1.23333,-0.6,8.63333,0.466667,1,1,37923.1,41529.3,1698,0.96500546,1.1377001,274.30029,103.26904,4.14423,346.934,-8.29111,-26.2482,25.0213,26.184
1980-08-16 06:06:54,1,1.76667,-1.46667,8.73333,0.282843,1,1,31437.0,26733.2,1698,0.96501422,1.1373863,274.24869,103.26822,4.26823,339.603,-1.55946,-22.5106,22.7813,21.0079
1980-08-16 06:12:18,1,2.73333,-1.23333,8.2,0.194365,1,1,33860.3,40053.6,1698,0.96502471,1.1370106,274.19693,103.26724,4.15091,337.667,-0.360447,-23.8938,23.643,25.7145
1980-08-16 06:17:42,1,2.83333,-1.16667,8.33333,0.33665,1,1,36699.6,29316.3,1698,0.96503347,1.1366968,274.14926,103.26643,4.70133,340.688,-3.63514,-21.1708,24.6144,21.9995
1980-08-16 06:23:06,1,1.8,-1.16667,8.7,0.385861,1,1,42081.2,38921.0,1698,0.96504396,1.1363211,274.09747,103.26544,4.86107,344.013,0.0822557,-24.7015,26.3574,25.3484
1980-08-16 06:28:30,1,1.56667,-1.73333,9.0,0.210819,1,1,43953.9,37998.0,1698,0.96505272,1.1360073,274.0459,103.26463,5.30487,343.691,1.01253,-21.6671,26.9375,25.046
1980-08-16 06:33:54,1,1.5,-1.6,9.0,2.22045e-16,1,1,34955.1,30490.3,1698,0.96506149,1.1356945,273.99429,103.26381,4.41163,351.315,8.1828,-21.5306,24.0222,22.4357
1980-08-16 06:39:18,1,-0.1,-1.33333,9.26667,0.301846,1,1,40756.6,37395.7,1698,0.96507198,1.1353188,273.94644,103.26283,5.08711,352.663,2.32504,-20.2689,25.9392,24.8467
1980-08-16 06:44:42,1,1.43333,-2.36667,8.73333,0.282843,1,1,45873.5,40098.1,1698,0.96508074,1.135005,273.89484,103.26202,5.24801,348.834,7.45068,-15.0865,27.5194,25.7288
1980-08-16 06:50:06,1,2.5,-1.66667,7.53333,0.194365,1,1,77537.4,57154.5,1698,0.96509129,1.1346292,273.84308,103.26105,6.03951,337.578,4.44989,-11.5472,35.7778,30.7173
1980-08-16 06:55:30,1,1.2,-1.8,8.1,0.0,1,1,82809.3,61745.7,1698,0.96510005,1.1343155,273.79538,103.26022,5.91657,343.8,4.97776,-13.565,36.9741,31.9272
1980-08-16 07:00:51,1,1.03333,-2.43333,8.5,0.194365,1,1,62777.7,45056.3,1698,0.96510881,1.1340027,273.7438,103.25941,5.3123,343.872,6.31895,-17.8374,32.1929,27.2732
1980-08-16 07:08:39,-1,nan,nan,nan,nan,1,4,nan,nan,1698,0.96512276,1.1335011,273.67218,103.2581,nan,nan,nan,nan,nan,nan
1980-08-16 07:14:03,-1,nan,nan,nan,nan,1,3,nan,nan,1698,0.96513319,1.1331253,273.62042,103.25713,nan,337.935,19.4286,-10.9322,nan,nan
1980-08-16 07:19:27,1,2.3,-4.0,6.2,0.0,1,1,69099.0,43080.0,1698,0.96514195,1.1328115,273.56882,103.2563,5.19305,339.717,22.0068,4.45069,33.7749,26.6683
1980-08-16 07:22:30,1,1.83333,-3.6,6.6,0.262467,1,1,73973.1,45396.4,1698,0.9651472,1.1326237,273.54099,103.25581,5.29474,333.763,18.4298,-14.2846,34.9458,27.3759
1980-08-16 07:27:54,1,1.23333,-3.93333,6.7,0.290593,1,1,85507.9,40032.5,1698,0.9651559,1.1323109,273.48938,103.255,5.46465,333.19,21.6148,-16.2455,37.5717,25.7077
1980-08-16 07:33:18,1,2.3,-4.0,6.76667,0.402768,1,1,60838.6,49650.8,1698,0.96516639,1.1319342,273.44153,103.25401,5.37011,331.129,23.335,-10.5954,31.6919,28.63
1980-08-16 07:38:42,1,2.3,-3.7,6.6,0.270801,1,1,73360.3,45750.1,1698,0.96517509,1.1316214,273.38992,103.2532,5.07498,326.529,23.2898,-11.7471,34.8007,27.4824
1980-08-16 07:44:06,1,1.5,-5.8,4.2,0.0,1,1,57748.4,42145.6,1698,0.96518558,1.1312456,273.33817,103.25223,4.92836,328.902,35.9902,-4.54439,30.8765,26.3775
1980-08-16 08:00:18,-1,nan,nan,nan,nan,1,3,nan,nan,1698,0.96521354,1.1302433,273.18713,103.24962,nan,327.904,24.8179,-21.17,nan,nan
1980-08-16 08:05:42,-1,nan,nan,nan,nan,1,3,nan,nan,1698,0.96522224,1.1299295,273.13943,103.24879,nan,324.657,33.0103,-11.262,nan,nan
1980-08-16 08:11:06,1,0.733333,-4.23333,7.2,0.253859,1,1,61111.8,40475.2,1698,0.96523267,1.1295538,273.08768,103.24782,4.84372,332.316,29.4434,-24.2727,31.7629,25.8495
1980-08-16 08:16:30,1,1.3,-4.43333,6.6,0.368179,1,1,58928.4,44136.9,1698,0.96524137,1.12924,273.03607,103.24699,4.82939,328.287,29.0908,-20.728,31.1903,26.9935
1980-08-16 08:21:54,1,1.8,-4.9,4.46667,0.478423,1,1,93376.3,46580.5,1698,0.96525007,1.1289272,272.98447,103.24619,4.67855,325.353,30.5068,-4.11398,39.2624,27.7306
1980-08-16 08:27:18,1,1.66667,-5.3,4.73333,0.194365,1,1,54267.8,38889.1,1698,0.96526051,1.1285515,272.93661,103.24519,4.44116,329.893,38.1516,-17.0341,29.9315,25.338
1980-08-16 08:32:42,1,1.8,-5.03333,5.66667,0.48074,1,1,73679.1,41468.9,1698,0.96526921,1.1282377,272.88501,103.24438,3.94385,331.959,32.4293,-31.9021,34.8763,26.1649
1980-08-16 08:38:06,1,3.56667,-4.66667,2.33333,0.439697,1,1,53492.1,42157.7,1698,0.9652797,1.127862,272.83325,103.24339,4.08035,322.553,31.5751,-0.222907,29.7169,26.3813
1980-08-16 08:43:30,1,3.76667,-4.6,1.93333,0.48074,1,1,49620.4,41058.0,1698,0.9652884,1.1275482,272.78555,103.24258,4.26495,323.342,27.1897,6.59349,28.6212,26.0349
1980-08-16 08:48:54,1,4.13333,-4.23333,2.4,0.210819,1,1,41935.3,50716.1,1698,0.9652971,1.1272354,272.73395,103.24176,4.33477,321.698,26.5014,5.96957,26.3116,28.9355
1980-08-16 08:54:18,1,3.16667,-4.5,3.5,0.485341,1,1,59045.7,57571.0,1698,0.96530753,1.1268597,272.68219,103.24078,4.63627,321.417,29.3888,-6.25457,31.2214,30.829
1980-08-16 08:59:42,1,4.0,-3.8,1.13333,0.457044,1,1,36111.0,49050.3,1698,0.96531624,1.1265459,272.63449,103.23996,3.9783,316.902,24.3343,15.6742,24.4162,28.4563
1980-08-16 09:05:06,1,2.9,-3.6,0.3,0.0,1,1,40217.7,48071.9,1698,0.96532667,1.1261702,272.58273,103.23898,3.77087,318.313,30.9335,18.1709,25.7672,28.1711
1980-08-16 09:15:54,1,2.16667,-2.83333,5.26667,0.270801,1,1,96142.2,63504.3,1698,0.96534407,1.1255436,272.47955,103.23735,5.95509,331.899,18.3168,-3.33837,39.8396,32.3787
1980-08-16 09:21:18,1,2.1,-3.0,5.4,0.270801,1,1,99997.6,65475.1,1698,0.96535444,1.1251678,272.43167,103.23636,6.26863,330.132,11.8912,-4.08489,40.6306,32.8773
1980-08-16 09:26:42,1,2.03333,-2.4,6.06667,0.194365,1,1,108518.0,86594.1,1698,0.96536314,1.124855,272.38007,103.23553,7.03418,333.871,10.008,-6.14937,42.3261,37.8096
1980-08-16 09:32:06,1,1.33333,-3.53333,6.6,0.210819,1,1,105837.0,69308.1,1698,0.96537358,1.1244793,272.32831,103.23456,6.08873,335.717,13.9173,-0.587877,41.8001,33.8259
1980-08-16 09:37:30,1,2.26667,-3.06667,5.53333,0.305505,1,1,103558.0,60128.3,1698,0.96538222,1.1241655,272.28061,103.23373,5.60522,336.281,15.0955,-2.1478,41.3476,31.5063
1980-08-16 09:42:54,1,2.4,-4.0,5.1,0.0,1,1,100258.0,74374.9,1698,0.96539092,1.1238527,272.22903,103.23293,5.99347,337.942,13.4734,2.05847,40.6835,35.0406
1980-08-16 09:48:18,1,2.6,-3.2,5.46667,0.274874,1,1,101365.0,66049.7,1698,0.96540135,1.123477,272.17725,103.23193,6.34579,335.943,15.8512,2.18405,40.9074,33.0212
1980-08-16 09:53:42,1,2.16667,-3.5,5.66667,0.24037,1,1,111556.0,70424.7,1698,0.96541005,1.1231632,272.12958,103.23112,5.72444,333.051,11.6318,5.48804,42.9145,34.0973
1980-08-16 09:59:06,1,1.63333,-3.36667,5.26667,0.282843,1,1,79714.9,89768.3,1698,0.96542042,1.1227875,272.07779,103.23013,7.5007,336.671,3.57596,8.65272,36.2767,38.4963
1980-08-16 10:04:30,1,1.43333,-3.56667,5.53333,0.270801,1,1,90198.0,78003.2,1698,0.96542913,1.1224747,272.02621,103.22932,6.99103,339.647,2.89124,8.11803,38.5884,35.8851
1980-08-16 10:09:54,1,1.4,-3.46667,5.53333,0.312694,1,1,93805.4,71702.7,1698,0.96543777,1.1221619,271.97852,103.2285,6.80791,335.212,5.36116,3.83667,39.3524,34.4053
1980-08-16 10:15:18,1,3.3,-2.56667,5.5,0.262467,1,1,88544.1,76135.7,1698,0.96544814,1.1217861,271.92676,103.22752,5.99822,323.622,3.15007,5.35008,38.2329,35.4529
1980-08-16 10:26:06,1,3.1,-2.8,5.5,4.44089e-16,1,1,83445.2,79411.6,1698,0.96546721,1.1210966,271.82336,103.22571,6.38076,325.36,3.1128,4.46326,37.1158,36.2076
1980-08-16 10:31:30,1,2.8,-2.96667,5.63333,0.194365,1,1,90504.2,75909.4,1698,0.96547586,1.1207838,271.7757,103.2249,6.79201,325.899,1.65433,5.50448,38.6538,35.4002
1980-08-16 10:36:54,1,2.8,-2.96667,5.63333,0.194365,1,1,95027.9,81403.9,1698,0.9654845,1.120471,271.72409,103.22408,6.87468,328.676,-0.429305,5.39336,39.608,36.659
1980-08-16 10:42:18,1,3.06667,-2.86667,5.1,0.210819,1,1,82958.2,67124.5,1698,0.96549493,1.1200953,271.67233,103.2231,6.72,325.443,3.85214,6.7193,37.0073,33.2888
1980-08-16 10:47:42,1,3.1,-3.0,5.23333,0.329983,1,1,78499.7,79641.7,1698,0.96550357,1.1197815,271.62463,103.22227,6.44091,327.081,0.883336,9.67356,35.9991,36.26
1980-08-16 10:53:06,1,1.9,-2.9,5.4,9.15513e-16,1,1,76316.3,77117.6,1698,0.96551394,1.1194057,271.57288,103.2213,8.37766,327.527,2.57046,8.70959,35.4949,35.6808
1980-08-16 10:58:30,1,2.6,-2.6,5.8,0.0,1,1,82545.8,74004.1,1698,0.96552259,1.1190929,271.52127,103.22047,7.78654,329.518,1.49929,8.8328,36.9152,34.9531
1980-08-16 11:03:54,1,2.86667,-4.16667,4.03333,0.305505,1,1,87072.1,75684.3,1698,0.96553123,1.1187801,271.47357,103.21965,7.13019,330.692,5.50361,15.2217,37.9138,35.3477
1980-08-16 11:09:18,1,3.33333,-3.83333,2.83333,0.270801,1,1,89569.8,65571.4,1698,0.9655416,1.1184044,271.42181,103.21867,6.49752,326.914,4.76178,17.8731,38.4537,32.9015
1980-08-16 11:14:42,1,2.3,-4.36667,2.1,0.286744,1,1,83507.3,67995.4,1698,0.96555024,1.1180906,271.37021,103.21785,6.57311,330.412,8.59401,18.6191,37.1296,33.5041
1980-08-16 11:20:06,1,3.23333,-3.9,3.1,0.298142,1,1,73417.5,70137.8,1698,0.96556062,1.1177149,271.31845,103.21687,6.05807,319.83,-0.958711,6.29716,34.8143,34.0278
1980-08-16 11:25:30,1,1.9,-4.83333,2.2,0.149071,1,1,85881.6,61983.4,1698,0.96556926,1.1174021,271.27075,103.21605,6.51129,330.555,9.64921,16.7882,37.6537,31.9886
1980-08-16 11:30:54,1,2.6,-4.36667,2.43333,0.323179,1,1,84600.3,67763.7,1698,0.9655779,1.1170893,271.21915,103.21524,6.34061,328.986,9.2116,17.625,37.3718,33.4469
1980-08-16 11:36:18,1,2.66667,-4.3,2.7,0.149071,1,1,78074.1,63017.8,1698,0.96558827,1.1167135,271.16739,103.21425,6.55743,328.394,7.17331,15.753,35.9014,32.2544
1980-08-16 11:41:42,1,2.6,-4.1,1.9,2.22045e-16,1,1,81500.2,64148.5,1698,0.96559691,1.1163998,271.11969,103.21342,6.61925,326.13,4.22571,20.3432,36.6807,32.5425
1980-08-16 11:47:06,1,2.9,-3.9,2.96667,0.188562,1,1,87231.5,65731.1,1698,0.96560729,1.116024,271.06793,103.21245,7.14202,326.563,5.95294,12.4721,37.9485,32.9415
1980-08-16 11:52:30,1,2.76667,-3.96667,3.23333,0.282843,1,1,72625.5,63735.8,1698,0.96561593,1.1157112,271.01633,103.21162,5.51208,321.838,7.78177,13.4973,34.626,32.4377
1980-08-16 11:57:54,1,2.9,-3.9,3.1,0.0,1,1,70443.8,62248.1,1698,0.96562457,1.1153984,270.96863,103.21082,5.25518,318.956,9.17562,14.7887,34.102,32.0569
1980-08-16 12:03:18,1,3.9,-3.46667,2.7,0.169967,1,1,59511.6,63395.4,1698,0.96563488,1.1150227,270.91687,103.20982,4.86632,313.899,6.67697,21.5897,31.3443,32.3509
1980-08-16 12:08:42,1,4.1,-2.5,1.76667,0.188562,1,1,59881.6,70430.3,1698,0.96564353,1.1147089,270.86526,103.20901,5.37404,311.631,3.28174,22.7587,31.4416,34.0987
1980-08-16 12:14:06,1,3.7,-0.433333,0.666667,0.620036,1,1,68685.3,77095.3,1698,0.96565384,1.1143332,270.81351,103.20802,6.46787,322.932,-6.7354,25.4811,33.6736,35.6757
1980-08-16 12:19:30,1,2.73333,1.73333,0.166667,0.216025,1,1,50388.2,55711.9,1698,0.96566248,1.1140203,270.76581,103.2072,5.558,327.931,-18.5906,35.7777,28.8418,30.3272
1980-08-16 12:24:54,-1,nan,nan,nan,nan,1,-3,nan,nan,1698,0.96567106,1.1137075,270.7142,103.20639,nan,324.213,-25.2692,47.2707,nan,nan
1980-08-16 12:30:18,1,-0.1,-3.5,6.6,0.439697,1,1,68101.0,75177.7,1698,0.96568143,1.1133318,270.66245,103.2054,5.72629,337.996,12.2244,-9.84917,33.5301,35.2292
1980-08-16 12:45:15,-1,nan,nan,nan,nan,1,3,nan,nan,1698,0.96570724,1.1123924,270.52325,103.20294,nan,318.337,15.8481,9.00956,nan,nan
1980-08-16 12:46:30,-1,nan,nan,nan,nan,1,3,nan,nan,1698,0.96570897,1.1123304,270.51138,103.20277,nan,315.804,8.97925,10.1718,nan,nan
1980-08-16 12:51:54,1,4.26667,-2.36667,3.23333,0.282843,1,1,55931.1,63348.2,1698,0.96571755,1.1120167,270.46368,103.20195,5.30085,309.995,4.04577,13.5503,30.3868,32.3389
1980-08-16 12:57:18,1,3.16667,-3.9,3.9,0.262467,1,1,62041.5,61432.2,1698,0.96572793,1.1116409,270.41193,103.20097,5.64502,320.063,11.5656,5.01948,32.0036,31.8461
1980-08-16 13:02:42,1,3.4,-3.8,3.36667,0.329983,1,1,63303.1,58375.9,1698,0.96573651,1.1113281,270.36032,103.20015,5.81355,319.811,13.1901,14.1924,32.3274,31.0438
1980-08-16 13:08:06,1,3.36667,-3.86667,2.3,0.380058,1,1,72237.5,69731.3,1698,0.96574682,1.1109524,270.31244,103.19916,5.90018,322.419,9.21286,19.0256,34.5334,33.929
1980-08-16 13:13:30,1,3.36667,-3.96667,3.1,0.194365,1,1,47980.2,57380.6,1698,0.9657554,1.1106396,270.26086,103.19835,5.40538,321.54,12.1967,14.1365,28.1442,30.778
1980-08-16 13:18:54,1,0.966667,-3.46667,0.233333,0.305505,1,1,73453.8,68017.8,1698,0.96576399,1.1103268,270.20926,103.19753,4.83525,332.226,9.60782,34.3608,34.8229,33.5096
1980-08-16 13:28:28,-1,nan,nan,nan,nan,1,4,nan,nan,1698,0.96578115,1.1097002,270.12167,103.19588,nan,nan,nan,nan,nan,nan
1980-08-16 13:39:16,-1,nan,nan,nan,nan,1,3,nan,nan,1698,0.96580005,1.1090117,270.01831,103.19408,nan,323.562,8.30014,32.987,nan,nan
1980-08-16 13:50:04,1,1.6,-4.6,1.0,0.0,1,1,56382.8,60297.9,1698,0.96581894,1.1083231,269.91882,103.19226,5.69202,326.459,5.97609,33.9857,30.5092,31.5507
1980-08-16 14:00:52,1,1.1,-4.4,0.6,0.0,1,1,61789.3,54191.5,1698,0.96583617,1.1076975,269.81564,103.19063,5.5964,326.503,16.3932,27.554,31.9385,29.9105
1980-08-16 14:07:30,1,1.9,-4.4,1.8,0.0,1,1,68973.8,58325.9,1698,0.96584815,1.1072588,269.75589,103.18947,5.21853,321.213,17.3169,20.4437,33.7443,31.0305
1980-08-16 14:15:08,-1,nan,nan,nan,nan,1,4,nan,nan,1698,0.96586186,1.1067581,269.68427,103.18816,nan,nan,nan,nan,nan,nan
1980-08-16 14:18:18,1,0.8,-4.9,2.2,0.0,1,1,67553.1,59772.1,1698,0.96586698,1.1065702,269.65253,103.18767,5.17118,329.26,22.101,21.207,33.3949,31.4128
1980-08-16 14:29:06,1,1.5,-3.4,0.2,0.0,1,1,74028.5,64815.9,1698,0.96588582,1.1058817,269.55304,103.18585,5.66617,321.72,14.3827,27.3648,34.9589,32.7114
1980-08-16 17:07:57,-1,nan,nan,nan,nan,1,3,nan,nan,1698,0.96615553,1.0959921,268.07004,103.15988,nan,356.441,9.12247,34.9742,nan,nan